Regional Weather Roundup
Issued by NWS Newport/Morehead, NC

Current Version | Previous Version | Text Only | Print | Product List | Glossary Off
Versions: 1 2 3 4 5 6 7 8 9 10 11 12 13 14 15 16 17 18 19 20 21 22 23 24 25 26 27 28 29 30 31 32 33 34 35 36 37 38 39 40 41 42 43 44 45 46 47 48 49 50
000 ASUS42 KMHX 280013 RWRMHX WEATHER ROUNDUP FOR EASTERN NORTH CAROLINA NATIONAL WEATHER SERVICE NEWPORT/MOREHEAD CITY NC 800 PM EDT SAT MAY 27 2017 NOTE: "FAIR" INDICATES FEW OR NO CLOUDS BELOW 12,000 FEET WITH NO SIGNIFICANT WEATHER AND/OR OBSTRUCTIONS TO VISIBILITY NCZ015>017-031-032-045>047-102-103-280100- NORTH COAST CITY SKY/WX TMP DP RH WIND PRES REMARKS EDENTON CLOUDY 83 67 58 CALM 29.87R ELIZABETH CITY CLOUDY 80 69 69 S3 29.85R KITTY HAWK PTCLDY 79 67 66 CALM 29.86R MANTEO PTCLDY 78 71 78 SW9 29.87R $$ NCZ045>047-081-094-103-104-280100- CENTRAL COAST CITY SKY/WX TMP DP RH WIND PRES REMARKS FRISCO CLEAR 77 70 79 SW10G17 29.89S $$ NCZ095-097-098-100-101-280100- SOUTHERN COAST CITY SKY/WX TMP DP RH WIND PRES REMARKS BEAUFORT MOCLDY 77 72 84 SW15 29.89R CEDAR ISLAND NOT AVBL JACKSONVILLE PTCLDY 80 71 74 SW8 29.87R PINEY ISLAND CLEAR N/A N/A N/A S14 29.88R WILMINGTON PTCLDY 79 68 69 SW10 29.89S $$ NCZ011>013-027>030-043-044-078>080-089-090>093-098-280100- COASTAL PLAIN CITY SKY/WX TMP DP RH WIND PRES REMARKS AHOSKIE NOT AVBL CLINTON CLEAR 83 70 65 CALM 29.87S ELIZABETHTOWN CLEAR 85 65 52 SW3 29.88S GOLDSBORO CLEAR 84 66 54 S5 29.84S GREENVILLE CLOUDY 82 64 54 CALM 29.88R HAVELOCK MOCLDY 78 68 71 S8 29.89R KENANSVILLE CLEAR 79 68 69 CALM 29.87R KINSTON CLEAR 81 66 61 CALM 29.87R NEW BERN CLEAR 80 71 74 S7 29.88R RICHLANDS CLEAR 81 71 71 S9 29.88R ROCKY MOUNT CLEAR 79 69 71 S3 29.86R WASHINGTON CLOUDY 82 65 56 SW3 29.85S WHITEVILLE CLEAR 84 67 55 CALM 29.88S $$ AMZ130-135-150-152-154-156-158-170-250-252-270-ANZ085-086-088-633-658-670-280100- MARINE OBSERVATIONS STATION/POSITION TIME TEMP WIND PRES WAVE SWELL AIR SEA DIR/SP/G HT/PER HT/PER (UTC) (F) (DEG/KT/KT) (MB) (FT/S) (FT/S) CHESAPEAKE LIGHT NOT AVBL 64 E VA BEACH 2350 69 67 200/ 6/ 8 1012.1 3/ 8 2/ 8 DUCK 2348 80 64 170/ 4/ 5 1010.6 2 E DUCK 0000 67 N/A 2/ 8 OREGON INLET 2348 200/ 16/ 18 1011.2 13E OREGON INLT 2348 68 N/A 3/ 7 2/ 7 HATTERAS CG 2348 76 74 210/ 10/ 14 1011.8 DIAMOND BUOY 2350 78 77 220/ 19/ 21 1011.7 3/ 8 2/ 8 CAPE LOOKOUT 0000 76 220/ 10/ 14 1012.1 BEAUFORT LAB 2348 76 74 220/ 8/ 14 1011.6 30 SE NEW RVR IN 2308 77 77 220/ 17/ 21 1011.9 30 SE NEW RVR IN 2343 77 N/A 5/ 5 27 SE WRIGHTSVLE 2308 76 77 210/ 16/ 21 1011.6 5 SE WRIGHTSVLE 2308 76 75 220/ 12/ 17 1012.3 225 S CAPE HAT 2350 76 77 220/ 10/ 12 1015.8 3/ 7 3/ 7 41 SE CHARLESTON 2350 77 75 210/ 14/ 17 1013.0 3/ 4 2/ 8 $$

USA.gov is the U.S. government's official web portal to all federal, state and local government web resources and services.